Location: Newark
(51.2625°N, 13.3939°E)
Time: 00:20:10
(UTC+00:00)

Explorer 7 - Pass Details

Date: 16 November 2019
Orbit: 485 x 680 km, 50.3° (Epoch: 07 December)

Event Time Altitude Azimuth Distance (km) Brightness Sun altitude
Rises 05:32:23 0° 283° (WNW) 2,725 - -8.2°
Exits shadow 05:34:39 - 274° (W) 1,853 8.9 -7.9°
Reaches altitude 10° 05:34:49 10° 274° (W) 1,795 8.8 -7.9°
Maximum altitude 05:38:29 33° 209° (SSW) 878 7.8 -7.4°
Drops below altitude 10° 05:41:59 10° 144° (SE) 1,706 10.3 -6.8°
Sets 05:44:14 0° 134° (SE) 2,567 11.7 -6.5°
